Location: Bridgewater
(44.3670°N, 64.5170°W)
Time: 21:18:59
(UTC-03:00)

Amateur Radio Satellites - All Passes

Search period start: 25 October 2014 20:48
Search period end: 26 October 2014 20:48
Location: Bridgewater, 44.3670°N, 64.5170°W

Satellite Date Start Highest point End Downlink Frequencies (MHz)
Time Altitude Azimuth
HO-68 25 Oct 20:56:54 21:03:57 66° 69° (ENE) 21:11:04 435.675 MHz FM
STRAND 1 25 Oct 21:01:42 21:06:33 43° 292° (WNW) 21:11:23 ?
ZACube-1 25 Oct 21:26:51 21:29:30 16° 62° (ENE) 21:32:07 437.345 MHz
UKube-1 25 Oct 21:28:41 21:32:41 36° 69° (ENE) 21:36:42 145.840 MHz, 145.915 MHz
KITSAT 1 25 Oct 21:50:01 21:58:08 84° 240° (WSW) 22:06:12 435.175 FM
RS-15 25 Oct 22:05:23 22:15:35 46° 111° (ESE) 22:25:42 29.354 - 29.394 USB, Beacon 29.352 USB
UOSAT-12 25 Oct 22:05:32 22:08:52 19° 36° (NE) 22:12:11 437.025 FM, 437.400 FM
Oscar 11 25 Oct 22:09:01 22:13:21 85° 76° (ENE) 22:17:42 145.825 FM, Beacon 2401.500 USB
FUNcube-1 25 Oct 22:09:28 22:13:42 38° 70° (ENE) 22:17:52 145.950 - 145.970 MHz USB
SO-50 25 Oct 22:26:35 22:31:19 53° 240° (WSW) 22:36:03 436.795 FM
HO-68 25 Oct 22:46:25 22:52:10 26° 267° (W) 22:57:58 435.675 MHz FM
ZACube-1 25 Oct 23:00:51 23:05:24 64° 259° (W) 23:09:54 437.345 MHz
UKube-1 25 Oct 23:05:33 23:08:58 22° 266° (W) 23:12:24 145.840 MHz, 145.915 MHz
MaSat-1 25 Oct 23:40:33 23:44:12 32° 111° (ESE) 23:47:33 437.345 MHz
UOSAT-12 25 Oct 23:44:54 23:49:40 86° 236° (SW) 23:54:19 437.025 FM, 437.400 FM
FUNcube-1 25 Oct 23:46:32 23:50:10 23° 266° (W) 23:53:47 145.950 - 145.970 MHz USB
KITSAT 1 25 Oct 23:47:18 23:52:20 18° 259° (W) 23:57:21 435.175 FM
RS-15 26 Oct 00:16:56 00:27:41 58° 315° (NW) 00:38:31 29.354 - 29.394 USB, Beacon 29.352 USB
MaSat-1 26 Oct 01:16:34 01:19:49 24° 305° (NW) 01:22:48 437.345 MHz
JAS-1B 26 Oct 01:21:33 01:24:58 14° 89° (E) 01:28:36 435.800 - 435.900 CW/SSB
UOSAT-12 26 Oct 01:27:54 01:29:01 11° 254° (WSW) 01:30:08 437.025 FM, 437.400 FM
Oscar 19 26 Oct 01:43:54 01:47:02 16° 90° (E) 01:50:10 437.125 CW, 437.150 USB
AO-27 26 Oct 02:06:40 02:07:21 10° 86° (E) 02:08:01 436.795 MHz FM
AO-Echo 26 Oct 02:15:28 02:19:07 18° 90° (E) 02:22:44 ?
Oscar 16 26 Oct 02:28:37 02:33:29 42° 98° (E) 02:38:19 437.025 USB, Beacon 2401.1428
RS-15 26 Oct 02:34:03 02:43:00 28° 346° (NNW) 02:52:07 29.354 - 29.394 USB, Beacon 29.352 USB
Uribyol 2 26 Oct 02:50:33 02:55:05 29° 95° (E) 02:59:34 436.500 FM
PCSat 26 Oct 02:56:21 02:59:08 14° 103° (ESE) 03:01:55 145.825 MHz
ITAMSAT 1 26 Oct 02:56:48 03:01:27 31° 96° (E) 03:06:03 435.822 SSB
JAS-1B 26 Oct 03:09:34 03:16:15 79° 104° (ESE) 03:24:17 435.800 - 435.900 CW/SSB
Oscar 19 26 Oct 03:21:46 03:26:51 66° 287° (WNW) 03:31:55 437.125 CW, 437.150 USB
Gurwin Techsat 1B 26 Oct 03:23:32 03:28:13 30° 95° (E) 03:32:51 435.225 FM
TMSAT-1 26 Oct 03:34:04 03:38:37 28° 94° (E) 03:43:09 436.925 FM
AO-27 26 Oct 03:42:23 03:47:40 82° 104° (ESE) 03:52:53 436.795 MHz FM
AO-Echo 26 Oct 03:53:01 03:58:17 63° 288° (WNW) 04:03:31 ?
Oscar 16 26 Oct 04:08:25 04:12:37 26° 296° (WNW) 04:16:49 437.025 USB, Beacon 2401.1428
Sapphire 26 Oct 04:14:05 04:19:23 60° 116° (ESE) 04:24:44 437.095 MHz 1200 baud AX-25 AFSK
Uribyol 2 26 Oct 04:29:49 04:34:37 38° 293° (WNW) 04:39:22 436.500 FM
ITAMSAT 1 26 Oct 04:36:13 04:40:57 36° 293° (WNW) 04:45:40 435.822 SSB
PCSat 26 Oct 04:36:21 04:41:47 85° 301° (WNW) 04:47:15 145.825 MHz
RS-15 26 Oct 04:50:31 04:59:57 31° 21° (NNE) 05:09:37 29.354 - 29.394 USB, Beacon 29.352 USB
OPAL 26 Oct 04:53:48 04:58:36 42° 66° (ENE) 05:03:21 ?
JAS-1B 26 Oct 05:01:35 05:06:25 22° 300° (WNW) 05:11:50 435.800 - 435.900 CW/SSB
Gurwin Techsat 1B 26 Oct 05:03:21 05:08:14 38° 293° (WNW) 05:13:05 435.225 FM
TMSAT-1 26 Oct 05:13:42 05:18:39 40° 292° (WNW) 05:23:33 436.925 FM
JAS-2 26 Oct 05:15:13 05:20:10 18° 85° (E) 05:25:05 435.800 - 435.900 CW/SSB, 435.910 FM
AO-7 26 Oct 05:16:39 05:24:42 50° 101° (E) 05:32:42 29.400 - 29.500 MHz
AO-27 26 Oct 05:23:31 05:26:30 16° 302° (WNW) 05:29:28 436.795 MHz FM
AO-Echo 26 Oct 05:35:54 05:36:01 10° 306° (NW) 05:36:07 ?
Uosat F 26 Oct 05:39:03 05:44:03 58° 101° (ESE) 05:49:01 435.120 FM
Sapphire 26 Oct 05:58:43 06:03:12 26° 316° (NW) 06:07:44 437.095 MHz 1200 baud AX-25 AFSK
Hamsat 26 Oct 06:00:43 06:02:50 14° 90° (E) 06:04:56 145.90 MHz
PCSat 26 Oct 06:22:18 06:26:01 18° 322° (NW) 06:29:45 145.825 MHz
OPAL 26 Oct 06:33:17 06:37:35 27° 263° (W) 06:41:53 ?
STRAND 1 26 Oct 06:40:16 06:45:06 44° 69° (ENE) 06:49:59 ?
Saudisat 1A 26 Oct 06:49:27 06:51:52 15° 110° (ESE) 06:54:18 436.775 MHz
JAS-2 26 Oct 06:58:20 07:06:10 83° 104° (ESE) 07:13:59 435.800 - 435.900 CW/SSB, 435.910 FM
RS-15 26 Oct 07:03:33 07:14:41 71° 51° (NE) 07:26:17 29.354 - 29.394 USB, Beacon 29.352 USB
AO-7 26 Oct 07:09:43 07:17:20 42° 301° (WNW) 07:24:58 29.400 - 29.500 MHz
Uosat F 26 Oct 07:18:49 07:22:24 20° 299° (WNW) 07:25:58 435.120 FM
Hamsat 26 Oct 07:35:00 07:39:08 56° 287° (WNW) 07:43:15 145.90 MHz
SO-67 26 Oct 07:51:45 07:54:44 27° 96° (E) 07:57:42 435.3500 MHz FM
STRAND 1 26 Oct 08:20:18 08:24:28 25° 266° (W) 08:28:41 ?
Saudisat 1A 26 Oct 08:26:32 08:30:54 68° 307° (NW) 08:35:18 436.775 MHz
JAS-2 26 Oct 08:44:23 08:50:22 25° 302° (WNW) 08:56:24 435.800 - 435.900 CW/SSB, 435.910 FM
AO-7 26 Oct 09:05:56 09:07:55 11° 324° (NW) 09:09:55 29.400 - 29.500 MHz
RS-15 26 Oct 09:16:34 09:26:20 37° 253° (WSW) 09:36:30 29.354 - 29.394 USB, Beacon 29.352 USB
MaSat-1 26 Oct 09:24:31 09:27:10 89° 60° (ENE) 09:29:35 437.345 MHz
SO-67 26 Oct 09:25:04 09:27:33 19° 292° (WNW) 09:30:02 435.3500 MHz FM
Oscar 11 26 Oct 09:56:35 09:58:47 14° 90° (E) 10:00:59 145.825 FM, Beacon 2401.500 USB
Saudisat 1A 26 Oct 10:09:04 10:11:18 14° 328° (NNW) 10:13:34 436.775 MHz
HO-68 26 Oct 10:10:16 10:17:23 58° 102° (ESE) 10:24:26 435.675 MHz FM
ZACube-1 26 Oct 10:49:20 10:52:34 21° 93° (E) 10:55:46 437.345 MHz
UKube-1 26 Oct 10:50:53 10:55:11 53° 101° (E) 10:59:27 145.840 MHz, 145.915 MHz
Sapphire 26 Oct 11:18:09 11:21:23 16° 35° (NE) 11:24:37 437.095 MHz 1200 baud AX-25 AFSK
Oscar 11 26 Oct 11:31:06 11:35:21 58° 287° (WNW) 11:39:34 145.825 FM, Beacon 2401.500 USB
FUNcube-1 26 Oct 11:33:00 11:37:14 62° 101° (E) 11:41:22 145.950 - 145.970 MHz USB
PCSat 26 Oct 11:40:04 11:44:14 22° 41° (NE) 11:48:22 145.825 MHz
HO-68 26 Oct 11:58:34 12:04:42 32° 301° (WNW) 12:10:49 435.675 MHz FM
Oscar 16 26 Oct 12:12:22 12:13:46 11° 55° (NE) 12:15:10 437.025 USB, Beacon 2401.1428
JAS-1B 26 Oct 12:12:35 12:14:16 11° 52° (NE) 12:15:56 435.800 - 435.900 CW/SSB
KITSAT 1 26 Oct 12:19:34 12:27:23 57° 115° (ESE) 12:35:14 435.175 FM
ZACube-1 26 Oct 12:25:12 12:29:06 35° 290° (WNW) 12:32:55 437.345 MHz
UKube-1 26 Oct 12:28:09 12:30:58 17° 298° (WNW) 12:33:46 145.840 MHz, 145.915 MHz
ISS 26 Oct 12:35:25 12:38:24 31° 139° (SE) 12:41:25 145.800 FM
SO-50 26 Oct 12:43:11 12:47:13 34° 116° (ESE) 12:51:23 436.795 FM
Sapphire 26 Oct 13:00:25 13:05:52 68° 56° (ENE) 13:11:16 437.095 MHz 1200 baud AX-25 AFSK
Oscar 19 26 Oct 13:01:58 13:06:21 29° 65° (ENE) 13:10:43 437.125 CW, 437.150 USB
Oscar 10/S400 26 Oct 13:06:46 13:22:56 26° 150° (SSE) 13:38:55 145.825 - 145.975 CW/USB, Beacon 145.810 USB
FUNcube-1 26 Oct 13:10:57 13:13:06 14° 299° (WNW) 13:15:13 145.950 - 145.970 MHz USB
PCSat 26 Oct 13:22:49 13:28:15 77° 241° (WSW) 13:33:39 145.825 MHz
AO-27 26 Oct 13:24:33 13:28:23 21° 61° (ENE) 13:32:15 436.795 MHz FM
AO-Echo 26 Oct 13:29:55 13:34:01 27° 64° (ENE) 13:38:14 ?
Oscar 16 26 Oct 13:47:05 13:52:13 73° 73° (ENE) 13:57:22 437.025 USB, Beacon 2401.1428
JAS-1B 26 Oct 13:58:06 14:03:57 75° 73° (ENE) 14:09:38 435.800 - 435.900 CW/SSB
UOSAT-12 26 Oct 13:58:43 14:02:03 20° 111° (ESE) 14:05:25 437.025 FM, 437.400 FM
Uribyol 2 26 Oct 14:09:49 14:14:52 52° 70° (ENE) 14:19:57 436.500 FM
ISS 26 Oct 14:11:49 14:15:01 44° 337° (NNW) 14:18:15 145.800 FM
KITSAT 1 26 Oct 14:15:32 14:23:05 42° 316° (NW) 14:30:40 435.175 FM
ITAMSAT 1 26 Oct 14:16:15 14:21:20 56° 71° (ENE) 14:26:27 435.822 SSB
SO-50 26 Oct 14:23:37 14:27:45 34° 315° (NW) 14:32:01 436.795 FM
AO-7 26 Oct 14:28:27 14:33:55 20° 47° (NE) 14:39:23 29.400 - 29.500 MHz
Oscar 19 26 Oct 14:40:45 14:45:32 39° 262° (W) 14:50:21 437.125 CW, 437.150 USB
Sapphire 26 Oct 14:45:03 14:48:43 19° 255° (WSW) 14:52:22 437.095 MHz 1200 baud AX-25 AFSK
Gurwin Techsat 1B 26 Oct 14:46:06 14:51:16 56° 71° (ENE) 14:56:28 435.225 FM
TMSAT-1 26 Oct 14:56:16 15:01:22 51° 70° (ENE) 15:06:31 436.925 FM
AO-27 26 Oct 15:02:22 15:07:29 57° 259° (W) 15:12:39 436.795 MHz FM
AO-Echo 26 Oct 15:07:58 15:12:35 40° 263° (W) 15:17:22 ?
PCSat 26 Oct 15:09:41 15:10:43 11° 259° (W) 15:11:45 145.825 MHz
Saudisat 1A 26 Oct 15:12:41 15:16:17 24° 41° (NE) 15:19:52 436.775 MHz
Uosat F 26 Oct 15:18:17 15:20:49 14° 57° (ENE) 15:23:21 435.120 FM
Oscar 16 26 Oct 15:29:17 15:32:07 15° 271° (W) 15:34:57 437.025 USB, Beacon 2401.1428
UOSAT-12 26 Oct 15:37:12 15:41:47 57° 309° (NW) 15:46:28 437.025 FM, 437.400 FM
ISS 26 Oct 15:49:33 15:52:17 23° 357° (N) 15:55:01 145.800 FM
Uribyol 2 26 Oct 15:50:43 15:54:38 21° 268° (W) 15:58:36 436.500 FM
JAS-1B 26 Oct 15:52:19 15:55:22 14° 271° (W) 15:58:22 435.800 - 435.900 CW/SSB
ITAMSAT 1 26 Oct 15:57:26 16:01:11 20° 268° (W) 16:04:57 435.822 SSB
KITSAT 1 26 Oct 16:15:56 16:21:02 18° 344° (NNW) 16:26:09 435.175 FM
AO-7 26 Oct 16:17:10 16:25:24 75° 68° (ENE) 16:33:41 29.400 - 29.500 MHz
Gurwin Techsat 1B 26 Oct 16:27:42 16:31:35 21° 268° (W) 16:35:30 435.225 FM
TMSAT-1 26 Oct 16:37:31 16:41:35 22° 268° (W) 16:45:41 436.925 FM
Saudisat 1A 26 Oct 16:51:49 16:56:07 52° 240° (WSW) 17:00:24 436.775 MHz
Uosat F 26 Oct 16:53:52 16:58:54 86° 255° (WSW) 17:03:59 435.120 FM
Hamsat 26 Oct 16:56:21 16:58:18 13° 62° (ENE) 17:00:14 145.90 MHz
JAS-2 26 Oct 17:12:20 17:18:04 43° 65° (ENE) 17:24:31 435.800 - 435.900 CW/SSB, 435.910 FM
UOSAT-12 26 Oct 17:20:40 17:22:58 13° 331° (NNW) 17:25:17 437.025 FM, 437.400 FM
ISS 26 Oct 17:26:34 17:29:38 32° 17° (NNE) 17:32:42 145.800 FM
AO-7 26 Oct 18:12:25 18:18:56 25° 267° (W) 18:25:29 29.400 - 29.500 MHz
KITSAT 1 26 Oct 18:15:17 18:20:17 17° 15° (NNE) 18:25:16 435.175 FM
SO-67 26 Oct 18:27:17 18:28:53 13° 65° (ENE) 18:30:29 435.3500 MHz FM
Hamsat 26 Oct 18:29:33 18:33:44 65° 259° (W) 18:37:54 145.90 MHz
Uosat F 26 Oct 18:37:33 18:38:25 10° 273° (W) 18:39:17 435.120 FM
OPAL 26 Oct 18:40:27 18:45:25 69° 105° (ESE) 18:50:20 ?
STRAND 1 26 Oct 18:51:06 18:53:18 13° 88° (E) 18:55:30 ?
JAS-2 26 Oct 18:57:44 19:03:14 36° 267° (W) 19:09:25 435.800 - 435.900 CW/SSB, 435.910 FM
HO-68 26 Oct 18:58:49 19:01:03 12° 44° (NE) 19:03:18 435.675 MHz FM
ISS 26 Oct 19:03:11 19:06:29 57° 216° (SW) 19:09:45 145.800 FM
SO-50 26 Oct 19:33:32 19:35:44 13° 29° (NNE) 19:37:58 436.795 FM
SO-67 26 Oct 19:58:13 20:01:29 42° 262° (W) 20:04:47 435.3500 MHz FM
KITSAT 1 26 Oct 20:10:50 20:18:20 39° 42° (NE) 20:25:47 435.175 FM
OPAL 26 Oct 20:20:35 20:23:46 17° 303° (WNW) 20:26:56 ?
STRAND 1 26 Oct 20:27:57 20:33:09 83° 286° (WNW) 20:38:17 ?
